www.pogodaiklimat.ru
ПОГОДА в Тукумкари
Время
и дата
19:53 25.03
20:53 25.03
21:53 25.03
22:53 25.03
23:53 25.03
00:53 26.03
01:53 26.03
02:53 26.03
03:53 26.03
04:53 26.03
05:53 26.03
06:53 26.03
07:53 26.03
08:53 26.03
09:53 26.03
10:53 26.03
11:53 26.03
12:53 26.03
13:53 26.03
14:53 26.03
15:53 26.03
16:53 26.03
17:53 26.03
18:53 26.03
19:53 26.03
20:53 26.03
21:53 26.03
22:53 26.03
23:53 26.03
00:53 27.03
01:53 27.03
02:53 27.03
03:53 27.03
04:53 27.03
05:53 27.03
06:53 27.03
07:53 27.03
08:53 27.03
09:53 27.03
10:53 27.03
11:53 27.03
12:53 27.03
13:53 27.03
14:53 27.03
13:53 28.03
14:53 28.03
15:53 28.03
16:53 28.03
Ветер
(напр.,м/с)
Видим. Явления Облачность Т
(С)
Тd
(С)
f
(%)
Тe
(С)
Тes
(С)
Комфортность P
(гПа)
Po
(гПа)
Тmin
(С)
Tmax
(С)
R
(мм)
R24
(мм)
S
(см)
З 8 16 км 5/0 3600 m
[Ac]
+8.9 -16.1 15 +6 +6 1008.7 870.2
СЗ 8 16 км 10/0 3300 m
[Ac]
+8.3 -15.0 17 +5 +5 1009.2 870.7
СЗ 6 16 км 8/0 3300 m
[Ac]
+5.6 -15.0 21 +2 +2 1009.6 871.0
нст 2 16 км 2/0 3000 m
[Ac]
+4.4 -16.7 20 +3 +3 1009.9 871.3 +4.4 +11.7
штиль 0 16 км ясно +1.1 -15.0 29 +1 +1 1010.5 871.6
СВ 2 16 км 8/0 3300 m
[Ac]
+2.2 -13.9 29 0 0 1010.6 871.9
С 4 16 км 10/0 3000 m
[Ac]
+3.9 -13.9 26 +1 +1 1010.6 872.2
СВ 7 16 км 10/0 2700 m
[Ac]
+3.3 -11.7 32 -2 -2 1011.0 872.5
В 7 16 км 10/0 2400 m
[Ac]
+1.7 -7.2 52 -4 -4 1011.6 872.5
В 6 16 км 10/0 2700 m
[Ac]
+1.1 -7.2 54 -5 -5 1012.7 873.4 +0.6 +3.9
В 6 16 км 10/0 2550 m
[Ac]
+1.1 -7.8 51 -5 -5 1014.3 874.5
В 5 16 км 10/0 2550 m
[Ac]
+1.1 -7.2 54 -4 -4 1014.9 874.8
В 5 16 км 10/0 2850 m
[Ac]
+2.2 -7.8 48 -3 -2 1015.4 875.4
В 3 16 км 10/0 2700 m
[Ac]
+2.8 -7.2 48 -1 +1 1015.5 875.4
В 3 16 км 5/0 2700 m
[Ac]
+4.4 -7.2 43 +2 +6 1015.8 875.4
штиль 0 16 км н/о +5.6 -7.2 39 +5 +5 1015.4 875.1 +1.1 +6.7
В 4 16 км ясно +7.8 -7.2 34 +5 +15 опасность
простуды
1014.0 874.0
штиль 0 16 км ясно +8.9 -7.8 30 +9 +30 опасность
простуды
1012.9 873.1
Ю 3 16 км 8/0 2700 m
[Ac]
+10.6 -8.3 26 +9 +15 1011.6 872.5
штиль 0 16 км 10/0 2700 m
[Ac]
+10.6 -8.9 24 +11 +15 1010.8 871.9
З 3 16 км 5/0 3000 m
[Ac]
+11.7 -8.3 24 +11 +15 1010.2 871.3
З 4 16 км 2/0 2850 m
[Ac]
+11.7 -7.2 26 +10 +12 1010.4 871.6 +5.0 +12.8
штиль 0 16 км 5/0 2700 m
[Ac]
+9.4 -7.2 30 +9 +10 1011.2 871.9
С 2 16 км ясно +6.1 -7.2 38 +5 +5 1011.9 871.9
СВ 3 16 км ясно +4.4 -7.2 43 +2 +2 1013.1 872.8
С 3 16 км ясно +3.3 -6.7 48 0 0 1013.9 873.4
С 3 16 км ясно +3.3 -6.7 48 0 0 1014.2 874.0
С 2 16 км ясно +1.1 -6.7 56 -2 -2 1014.9 874.2 +1.1 +11.7
С 3 16 км ясно +2.2 -7.2 50 -1 -1 1014.7 874.5
штиль 0 16 км ясно +2.8 -7.8 46 +3 +3 1014.9 875.1
ЮЗ 2 16 км ясно +1.1 -7.2 54 -2 -2 1014.8 875.1
Ю 4 16 км ясно +1.1 -5.6 61 -4 -4 1015.0 875.4
ЮВ 2 16 км ясно 0.0 -6.1 63 -3 -3 1015.3 875.4
штиль 0 16 км ясно -1.1 -5.6 71 -2 -2 1016.0 875.7 -1.7 +4.4
Ю 4 16 км ясно -1.7 -5.6 75 -7 -7 1017.1 876.3
Ю 6 16 км ясно +1.7 -4.4 64 -4 -4 1017.7 876.9
ЮЗ 4 16 км ясно +4.4 -3.3 57 +1 +2 1018.1 877.2
ЮЗ 8
{12}
16 км ясно +8.3 -5.0 39 +4 +5 1017.6 877.5
ЮЗ 7
{12}
16 км ясно +10.6 -8.9 24 +8 +10 1017.0 877.2
З 10
{14}
16 км ясно +12.2 -9.4 21 +9 +10 1016.7 876.9 -1.7 +12.2
З 11
{15}
16 км ясно +13.9 -10.6 17 +11 +12 1015.2 876.0
З 15
{23}
16 км ясно +15.0 -14.4 12 +12 +12 1014.8 875.7
З 16
{21}
16 км ясно +15.0 -15.6 11 +12 +12 1014.4 875.1
штиль 0 16 км ясно +15.0 -15.6 11 +15 +31 опасность
простуды
1014.9 875.7
ЮЗ 12
{19}
16 км ясно +18.3 -15.0 9 +17 +17 1002.6 865.8
З 14
{18}
16 км ясно +18.3 -14.4 10 +17 +17 1002.2 865.2
З 11
{17}
16 км ясно +18.3 -14.4 10 +17 +17 1002.1 865.2
З 10
{13}
16 км ясно +17.2 -14.4 10 +16 +16 1002.3 864.9 +15.0 +18.9
Местоположение метеостанции Tucumcari Municipal Airport: широта 35.1828 долгота -103.6031 высота над уровнем моря 1239 м.
В архиве по умолчанию представлена погода в Тукумкари за последние 1-2 суток. Обновление информации о фактической погоде в базе происходит ежечасно! Архивные данные за месяц целиком и за предыдущие месяцы Вы можете получить, выбрав интересующий диапазон дат из раскрывающегося списка и нажав кнопку "Ввод!".
Внимание! Архив погоды МЕТАР в базе сайта по станциям, не включенным в климатический монитор, хранится не более 60 дней. Нет смысла пытаться выбрать более раннюю дату.
*Определитесь, кто Вы:
Внимание! Время в таблицах - местное (без учета летнего времени). Для получения всемирного времени необходимо вычесть поправку, которая равна -7 ч.
Смотрите также архив погоды в соседних городах и на ближайших метеорологических станциях:
Партнеры нашего сайта:      
Пояснения к столбцам:
  • Ветер - указаны скорость ветра в м/с - средняя за 10 мин, порывы в срок и между сроками (в фигурных скобках) и направление, откуда дует ветер: С - северный,
  • СВ - северо-восточный, В - восточный, ЮВ - юго-восточный, Ю - южный, ЮЗ - юго-западный, З - западный, СЗ - северо-западный.
  • Видимость - горизонтальная дальность видимости в метрах или километрах. При видимости от 1 до 10 км при отсутствии осадков обычно наблюдается дымка, при ухудшении видимости до 1 км и менее - туман. В сухую погоду видимость может ухудшаться дымом, пылью или мглою.
  • Явления - указаны атмосферные явления, наблюдавшиеся в срок или в последний час перед сроком; фигурными скобками обозначены явления, наблюдавшиеся между сроками (за 1-3 часа до срока); квадратными скобками обозначены град или гололедные отложения с указанием их диаметра в мм.
  • Облачность - указаны через наклонную черту общая и нижняя облачность в баллах и высота нижней границы облаков в метрах; квадратными скобками обозначены формы облаков: Ci - перистые, Cs - перисто-слоистые, Cc - перисто-кучевые, Ac - высококучевые, As - высокослоистые, Sc - слоисто-кучевые, Ns - слоисто-дождевые, Cu - кучевые, Cb - кучево-дождевые. Подробнее классификацию облаков см. в Атласе облаков (PDF).
  • T - Температура воздуха - температура, измеренная на высоте 2 м над землей.
  • Td - Температура точки росы - температура, при понижении до которой содержащийся в воздухе водяной пар достигнет насыщения.
  • f - Относительная влажность воздуха - влажноcть воздуха, измеренная на высоте 2 м над землей.
  • Te - Эффективная температура - температура, которую ощущает одетый по сезону человек в тени. Характеристика душности погоды. При расчете учитывается влияние влажности воздуха и скорости ветра на теплоощущения человека.
  • Tes - Эффективная температура на солнце - температура, которую ощущает человек, с поправкой на солнечный нагрев. Характеристика знойности погоды. Зависит от высоты солнца над горизонтом, облачности и скорости ветра. Ночью, в пасмурную погоду, а также при ветре 12 м/с и более поправка равна нулю.
  • P - Атмосферное давление - приведенное к уровню моря атмосферное давление.
  • Po - Атмосферное давление - измеренное на уровне метеостанции атмосферное давление.
  • Tmin - Минимальная температура - минимум температуры воздуха на высоте 2 м над землей.
  • Tmax - Максимальная температура - максимум температуры воздуха на высоте 2 м над землей.
  • R - Количество осадков - Количество выпавших осадков за период времени, мм. При наведении курсора мыши на число - период времени, за который выпало указанное количество осадков.
  • R24 - Количество осадков - Количество выпавших осадков за 24 часа, мм.
  • S - Снежный покров - Высота снежного покрова, см. При наведении курсора мыши на число - состояние снежного покрова и степень покрытия местности в баллах.